Location: �couen
(49.0206°N, 2.3831°E)
Time: 22:10:39
(UTC+00:00)

Cosmos 1607 - Pass Details

Date: 16 October 2021
Orbit: 918 x 984 km, 65.0° (Epoch: 06 December)

Event Time Altitude Azimuth Distance (km) Brightness Sun altitude
Rises 17:37:31 0° 321° (NW) 3,671 7.5 -7.2°
Reaches altitude 10° 17:40:09 10° 324° (NW) 2,712 6.8 -7.6°
Maximum altitude 17:46:28 66° 47° (NE) 1,038 4.0 -8.6°
Drops below altitude 10° 17:52:38 10° 129° (SE) 2,651 5.8 -9.6°
Enters shadow 17:54:59 - 132° (SE) 3,518 6.5 -10.0°
